Vertical_Velocity
0 -2 -2 -1 -0 -1 -1 -0 -0 -1 -1 -1 -1 -1 0 -1 0 -0 -1 -1 -1 -1 -0 -0 -0 -1 -1 -1 -0 -1 0 -0 0 -0 0 -1 -0 -0 -1 -1 -1 -0 -1
3 -0 -2 -1 -1 0 -1 -1 0 -1 -2 -1 -2 -0 0 -1 -1 1 0 -1 -0 -1 -1 -0 0 -0 -1 -0 -0 1 -0 -1 0 -1 0 -0 -1 -1 -1 -0 -1 -2 -0
0 -1 -1 -2 -1 -0 0 -1 -1 -2 -0 -2 -1 -0 -1 -1 1 -1 0 -1 -0 -1 -0 -0 1 0 0 0 -1 -1 -0 -0 0 -0 -1 0 -0 -1 -2 -2 -1 -1 -1
-1 -0 -1 -2 -2 -1 -1 -0 -0 -1 -1 -1 -1 -0 -2 -0 1 -1 -1 -1 -0 -1 -1 -0 1 -0 0 0 1 -1 -0 -1 -0 0 -0 -1 -1 -2 -2 -2 -1 -1 -1
-1 0 0 -0 -1 -0 -1 0 0 -1 -1 -2 -1 -0 0 -2 -1 1 -1 -1 -0 -1 -0 -1 0 1 -1 -0 0 -0 -1 -1 -1 -0 -1 -1 -1 -1 -1 -2 -2 -1 -1
-0 -1 0 0 -1 -0 -1 -0 0 0 -0 -0 -1 -1 -0 0 -1 0 -1 -1 -1 -1 -0 -1 1 0 1 0 0 1 1 1 1 -0 -1 -1 -0 -1 -1 -2 -2 -1 -1
1 -1 -1 1 0 0 -1 -0 0 -1 1 0 -0 -1 -1 -0 -1 -0 -0 -1 -1 -1 -0 -1 -0 -0 -1 -0 1 0 1 0 -0 -0 -1 -1 -2 -2 -2 -2 -2 -1 -2
1 1 -1 -0 1 -1 -0 -0 -0 -0 -1 -1 -0 0 -0 -1 -1 -0 -1 0 -1 0 0 -0 -0 -1 0 -1 -1 -0 -0 -1 -0 0 -1 -1 -1 -2 -1 -1 -2 -2 -1
2 1 1 1 0 0 0 -0 -1 -0 -1 -1 -0 -1 0 0 -1 -1 -1 0 -0 -0 -1 -0 -0 -1 -1 0 1 -1 -2 -0 -0 -0 0 -1 -1 -1 -2 -1 -2 -2 -2
1 1 1 -1 -2 -1 1 0 -1 -0 -1 -1 -1 -0 1 1 -1 -0 -1 -1 -0 -0 -1 -0 -0 1 1 -0 -1 1 2 0 -1 0 0 -0 0 0 -0 -1 -1 -1 -2
-1 1 1 -2 -2 1 0 0 -2 -1 -1 -1 -2 -1 -1 0 -0 0 -0 -1 -1 -0 -0 -1 -0 -0 -1 1 1 -1 -0 1 1 1 0 -1 -0 -0 -0 -2 -2 -2 -2
2 3 1 -2 -1 0 2 -1 -1 -1 0 -0 -2 -1 -0 -0 -0 -1 -0 -0 -0 -0 -0 -0 -0 -0 -0 0 1 1 -0 -1 -0 -1 -1 -1 -1 -2 -1 -1 -2 -2 -2
-0 0 6 3 -1 -4 -1 -1 1 -1 0 1 -1 -1 -1 -1 -2 -1 -1 -0 0 0 -0 0 1 1 0 1 -0 -1 -0 -1 -0 -1 -1 -1 -1 -0 -0 -1 -2 -1 -3
7 -1 5 2 0 1 0 -2 0 1 -1 -1 -1 -2 -1 -2 -2 -1 -0 -1 1 1 1 1 1 1 2 1 1 1 -0 -1 -2 -1 -0 -0 -1 -1 -1 -1 -2 -2 -3
20 19 -4 3 4 -0 2 -1 -8 -2 -2 -1 0 -1 -1 -1 -1 1 0 -1 0 0 0 -1 1 0 1 1 0 0 0 -0 -1 -1 -1 -2 -1 -2 -1 1 1 -3 -3
5 8 17 11 1 2 1 -1 -1 -4 -7 -2 -1 -1 -2 -1 -2 -1 0 -1 -1 -1 -0 1 -1 -1 -1 1 1 1 1 -0 0 -0 -1 -1 -1 0 1 0 1 3 -2
-8 -0 10 2 12 7 4 3 6 -1 -4 -2 -3 -2 -1 -0 0 -0 -0 -1 1 1 -2 -1 -1 -0 -1 -1 1 0 0 0 -0 -1 -1 -1 -0 -2 -2 -1 -1 -3 -2
3 9 -14 10 2 -0 3 4 1 -5 -6 -3 -1 -1 -2 -2 -3 -2 -0 -1 0 -1 0 -0 -0 -1 -1 -1 -1 1 -1 -1 -1 -2 -3 -2 -2 -2 -1 1 0 1 0
5 4 1 7 -4 6 11 6 10 4 2 2 2 5 0 -0 -3 -3 -1 -1 2 1 0 1 -1 1 -1 0 -2 -1 -0 0 -1 -1 -1 -1 -1 -3 -1 -0 -0 1 2
-13 -11 -8 -4 -2 6 -3 -0 11 -1 0 -8 2 0 1 0 1 -2 -2 -1 0 -0 -1 -1 -0 -2 -1 -2 -2 -1 1 0 -1 -1 -0 -1 -1 -1 -1 1 -2 -1 -0
1 -2 1 5 4 8 4 -4 -1 6 2 -2 -4 -4 -2 -1 -0 -2 -3 -3 1 1 -1 2 -6 -1 0 -1 3 -2 0 -2 -1 -2 -2 -2 -3 -1 -2 0 1 -2 -1
15 -4 10 -4 1 -4 1 0 -3 4 3 -2 7 6 9 5 1 -2 -2 -1 1 -0 -2 -3 -2 -2 1 -1 2 -0 6 2 -1 0 2 -2 -1 -2 -2 -2 -1 -2 -2
15 -2 -3 -11 2 9 -9 -1 24 12 3 1 12 50 13 8 9 3 4 5 5 -0 3 8 8 5 4 -2 -2 -3 -2 5 -3 0 2 -0 -2 -2 0 1 1 1 -1
4 1 -2 3 -4 -4 5 6 -15 11 -5 -14 8 -1 10 82 17 9 5 12 9 5 11 8 7 6 14 11 2 -4 -5 0 -1 10 3 2 -8 -3 -2 -2 0 0 -1
-1 2 -1 1 2 -1 3 5 -2 -8 0 -3 3 -1 -7 5 10 6 -4 21 53 14 16 20 4 18 11 7 0 -3 -4 -5 -4 -7 14 6 -3 -3 -4 -1 -0 -1 0
-1 -2 1 2 -2 0 -5 1 5 -3 -2 -2 -5 -1 1 -5 -5 -0 -2 10 23 5 4 5 4 0 -1 1 1 -0 -1 -3 -3 -8 -7 5 6 2 -5 -2 0 -2 -0
Height
5867 5870 5872 5874 5875 5877 5879 5880 5880 5881 5881 5882 5883 5883 5884 5885 5885 5885 5885 5885 5884 5884 5884 5884 5884 5883 5882 5882 5882 5881 5881 5881 5881 5881 5880 5879 5878 5878 5877 5876 5875 5874 5873
5864 5867 5870 5871 5872 5874 5876 5878 5878 5879 5879 5880 5881 5882 5883 5884 5885 5884 5884 5884 5883 5883 5884 5883 5883 5883 5882 5882 5882 5881 5881 5881 5881 5880 5880 5879 5878 5877 5877 5876 5875 5874 5872
5860 5864 5866 5868 5870 5871 5873 5875 5876 5876 5877 5878 5879 5881 5882 5883 5884 5884 5884 5883 5883 5883 5883 5883 5883 5882 5882 5882 5882 5882 5881 5881 5880 5880 5880 5879 5878 5877 5876 5875 5874 5872 5871
5856 5859 5862 5865 5867 5869 5871 5872 5873 5874 5875 5876 5877 5879 5880 5881 5883 5882 5883 5883 5882 5882 5882 5882 5882 5882 5882 5882 5881 5881 5881 5880 5880 5880 5879 5878 5877 5877 5876 5875 5873 5872 5870
5852 5855 5858 5861 5863 5866 5868 5869 5870 5871 5873 5874 5875 5877 5878 5879 5880 5881 5881 5882 5882 5881 5881 5881 5881 5881 5881 5881 5881 5881 5881 5880 5880 5879 5879 5878 5877 5876 5875 5874 5872 5871 5869
5846 5850 5853 5856 5859 5862 5864 5866 5867 5869 5870 5871 5873 5874 5876 5877 5878 5879 5879 5880 5881 5881 5880 5880 5880 5880 5880 5880 5880 5880 5880 5880 5879 5879 5878 5878 5876 5875 5874 5873 5871 5869 5867
5840 5845 5849 5851 5854 5857 5860 5862 5864 5865 5867 5869 5870 5872 5873 5874 5875 5876 5877 5878 5879 5879 5879 5879 5878 5879 5879 5879 5879 5879 5879 5878 5878 5878 5877 5877 5875 5874 5873 5871 5869 5868 5866
5834 5839 5843 5847 5850 5853 5856 5859 5860 5862 5864 5866 5867 5868 5870 5871 5872 5873 5875 5875 5877 5877 5877 5877 5877 5877 5878 5878 5878 5877 5877 5877 5876 5876 5876 5875 5874 5872 5871 5869 5868 5866 5864
5827 5831 5837 5841 5845 5848 5851 5854 5856 5858 5860 5862 5864 5865 5867 5869 5869 5870 5871 5873 5874 5874 5875 5875 5876 5876 5876 5876 5876 5876 5876 5876 5876 5875 5874 5874 5873 5871 5869 5867 5866 5864 5862
5820 5825 5831 5835 5839 5842 5846 5849 5852 5853 5856 5859 5860 5862 5864 5866 5867 5868 5868 5870 5871 5871 5872 5872 5873 5874 5874 5873 5874 5875 5874 5874 5873 5873 5872 5871 5870 5869 5868 5866 5864 5862 5860
5813 5819 5825 5830 5833 5837 5841 5845 5847 5850 5852 5855 5856 5858 5860 5862 5864 5866 5866 5867 5868 5869 5869 5870 5871 5871 5872 5872 5871 5871 5872 5872 5871 5870 5869 5869 5868 5866 5865 5863 5862 5860 5857
5804 5811 5817 5822 5827 5832 5836 5840 5843 5845 5848 5850 5852 5854 5856 5858 5860 5862 5863 5864 5866 5867 5868 5868 5868 5868 5868 5869 5868 5868 5868 5868 5868 5867 5866 5865 5865 5864 5862 5860 5859 5857 5855
5797 5804 5811 5817 5821 5826 5831 5835 5838 5840 5843 5846 5849 5850 5852 5855 5857 5858 5860 5861 5862 5863 5864 5864 5865 5865 5865 5865 5865 5865 5864 5864 5864 5864 5863 5862 5861 5860 5859 5857 5855 5853 5851
5792 5797 5804 5809 5814 5819 5823 5828 5833 5834 5837 5841 5844 5846 5848 5850 5852 5854 5856 5857 5858 5859 5859 5860 5860 5860 5861 5861 5862 5862 5861 5861 5860 5860 5859 5858 5857 5856 5855 5853 5852 5849 5847
5791 5792 5795 5799 5806 5813 5817 5821 5825 5828 5831 5834 5837 5840 5843 5846 5847 5849 5851 5853 5853 5855 5854 5855 5855 5856 5856 5857 5857 5858 5858 5857 5856 5855 5855 5854 5853 5852 5851 5849 5847 5845 5842
5788 5794 5794 5796 5802 5807 5811 5816 5817 5819 5823 5827 5831 5835 5838 5840 5841 5844 5847 5849 5850 5850 5850 5851 5851 5851 5851 5851 5852 5853 5853 5852 5852 5851 5850 5849 5848 5846 5845 5844 5843 5840 5837
5780 5785 5787 5794 5802 5805 5806 5809 5812 5815 5818 5820 5826 5830 5832 5834 5836 5837 5840 5843 5846 5846 5846 5845 5846 5847 5847 5846 5847 5847 5847 5846 5846 5846 5844 5844 5842 5840 5838 5837 5836 5834 5831
5775 5780 5781 5790 5794 5800 5804 5807 5810 5811 5813 5816 5821 5825 5827 5829 5830 5831 5833 5835 5837 5838 5838 5839 5839 5840 5840 5840 5840 5841 5841 5840 5840 5839 5838 5837 5835 5833 5832 5831 5828 5828 5825
5768 5772 5775 5783 5788 5795 5801 5805 5810 5811 5809 5810 5818 5822 5823 5825 5826 5826 5828 5829 5830 5831 5831 5832 5832 5833 5833 5833 5833 5833 5833 5833 5832 5831 5831 5831 5829 5828 5825 5824 5822 5820 5818
5764 5769 5776 5780 5783 5788 5792 5798 5800 5804 5807 5808 5814 5817 5817 5819 5821 5821 5822 5823 5823 5823 5824 5824 5825 5825 5825 5826 5826 5826 5826 5825 5825 5824 5824 5823 5822 5820 5819 5817 5815 5812 5810
5762 5768 5773 5775 5778 5782 5786 5789 5793 5798 5804 5806 5806 5807 5810 5813 5814 5815 5816 5815 5815 5815 5815 5817 5816 5816 5816 5817 5819 5819 5819 5818 5818 5816 5815 5814 5813 5812 5811 5809 5806 5804 5802
5758 5761 5766 5770 5774 5778 5781 5784 5788 5792 5796 5800 5803 5800 5801 5803 5805 5806 5807 5807 5808 5807 5807 5807 5808 5806 5807 5807 5808 5809 5810 5810 5808 5808 5806 5804 5803 5801 5800 5799 5796 5794 5791
5751 5758 5762 5766 5771 5773 5778 5779 5780 5783 5786 5791 5794 5793 5793 5795 5796 5797 5798 5799 5799 5798 5797 5797 5798 5797 5799 5800 5799 5799 5799 5801 5801 5799 5798 5796 5794 5793 5791 5789 5786 5784 5781
5749 5754 5759 5764 5767 5770 5772 5772 5777 5776 5776 5779 5780 5786 5787 5786 5790 5789 5792 5791 5789 5788 5788 5789 5791 5792 5792 5791 5790 5790 5789 5788 5789 5793 5791 5788 5786 5785 5783 5780 5777 5774 5771
5744 5748 5752 5757 5761 5764 5768 5768 5770 5771 5774 5776 5778 5777 5779 5781 5782 5784 5786 5787 5782 5784 5783 5783 5783 5784 5783 5782 5780 5781 5780 5778 5777 5777 5779 5777 5775 5774 5772 5770 5768 5764 5762
5738 5742 5747 5751 5754 5757 5760 5761 5763 5765 5767 5767 5767 5767 5771 5772 5773 5775 5778 5776 5777 5775 5774 5774 5774 5773 5773 5771 5769 5769 5768 5768 5767 5765 5765 5764 5763 5761 5760 5758 5755 5753 5751